STARLINK-2059 (47668 NORAD) Tracking and Keplerian Element Data
This shows tracking and keplerian element data for the satellite.
Feedback or suggestion? Click here.
Element | Value |
Catalog | 47668 |
Name | STARLINK-2059 |
Epoch Orbit | 282 |
Epoch Day | 60.16668981 |
Epoch Year | 2021 |
RAAN | 36.8447 |
Inclination | 53.0496 |
Eccentricity | 0.0001541 |
Argument of Perigee | 103.8487 |
Mean Anonmoly | 10.7079 |
Mean Motion | 15.86490819 |
Decay Rate | 0.00038399 |
L1 | 1 47668U 21012BA 21060.16668981 .00038399 00000-0 15131-3 0 9997 |
L2 | 2 47668 53.0496 36.8447 0001541 103.8487 10.7079 15.86490819 2821 |
Live tracking and technical data element details for STARLINK-2059 (NORAD 47668). STARLINK-2059 can be tracked NOW for your location showing map with azimuth and elevation plus other details from your city location.
Track the satellite on the map from your city or location and see movement details for azimuth, elevation, latitude, longitude, range, height, and movement on the map or in text.
IsCatalogInMostPopularTable: catalog: 47668, numindb: 3
Update: records affected: 1
GetName: 47668 STARLINK-2059
Hit Count: updated at: Mon, 01 Mar 2021 16:04:52 GMT